Location: Caltech
(34.1382°N, 118.1253°W)
Time: 10:19:41
(UTC-07:00)

Cosmos 1833 - Visible Passes

Search period start: 23 August 2014 00:00
Search period end: 02 September 2014 00:00
Orbit: 844 x 855 km, 70.9° (Epoch: 23 August)

Date Brightness Start Highest point End Pass type
(mag) Time Alt. Az. Time Alt. Az. Time Alt. Az.
23 Aug 6.7 01:58:20 10° NNW 01:59:16 15° NNW 01:59:16 15° NNW visible
24 Aug 6.8 01:45:42 10° NNW 01:46:24 14° NNW 01:46:24 14° NNW visible
25 Aug 6.9 01:33:04 10° NNW 01:33:35 13° NNW 01:33:35 13° NNW visible
26 Aug 7.0 01:20:26 10° NNW 01:20:50 12° NNW 01:20:50 12° NNW visible
27 Aug 7.0 01:07:48 10° NNW 01:08:07 12° NNW 01:08:07 12° NNW visible
28 Aug 7.0 00:55:09 10° NNW 00:55:26 11° NNW 00:55:26 11° NNW visible
29 Aug 7.0 00:42:31 10° NNW 00:42:47 11° NNW 00:42:47 11° NNW visible
30 Aug 7.0 00:29:53 10° NNW 00:30:11 12° NNW 00:30:11 12° NNW visible
31 Aug 7.0 00:17:15 10° NNW 00:17:35 12° NNW 00:17:35 12° NNW visible
01 Sep 7.0 00:04:37 10° NNW 00:05:02 12° NNW 00:05:02 12° NNW visible
01 Sep 7.0 23:51:58 10° NNW 23:52:30 13° NNW 23:52:30 13° NNW visible
